Location: Cambroso
(45.2833°N, 12.0850°E)
Time: 11:07:42
(UTC+00:00)

Aureole 2 Rocket - Pass Details

Date: 21 January 2021
Orbit: 285 x 373 km, 73.9° (Epoch: 01 March)

Event Time Altitude Azimuth Distance (km) Brightness Sun altitude
Rises 17:06:42 0° 189° (S) 2,191 6.3 -11.1°
Reaches altitude 10° 17:08:40 10° 183° (S) 1,367 5.1 -11.4°
Maximum altitude 17:11:35 48° 108° (ESE) 503 2.3 -11.9°
Enters shadow 17:13:48 16° 36° (NE) 1,100 3.9 -12.3°
